Location: Eschertshofen
(49.3064°N, 11.5756°E)
Time: 16:58:58
(UTC+00:00)

Spot 2 Rocket - Pass Details

Date: 26 June 2021
Orbit: 757 x 772 km, 98.5° (Epoch: 01 August)

Event Time Altitude Azimuth Distance (km) Brightness Sun altitude
Exits shadow 21:44:49 - 213° (SSW) 2,744 6.0 -14.5°
Reaches altitude 10° 21:46:17 10° 223° (SW) 2,300 5.7 -14.6°
Maximum altitude 21:49:58 20° 270° (W) 1,724 5.6 -14.8°
Drops below altitude 10° 21:53:40 10° 317° (NW) 2,320 7.1 -15.0°
Sets 21:56:37 0° 334° (NNW) 3,254 8.6 -15.2°
